Location: North Runcton
(52.7000°N, 0.4333°E)
Time: 07:15:39
(UTC+00:00)

Cosmos 1238 Rocket - Pass Details

Date: 19 May 2025
Orbit: 356 x 777 km, 82.9° (Epoch: 18 June)

Event Time Altitude Azimuth Distance (km) Brightness Sun altitude
Exits shadow 21:22:43 15° 154° (SSE) 1,419 4.3 -10.2°
Maximum altitude 21:25:20 34° 94° (E) 774 3.3 -10.4°
Drops below altitude 10° 21:28:21 10° 28° (NNE) 1,524 5.5 -10.7°
Sets 21:30:23 0° 18° (NNE) 2,339 6.6 -10.9°
